FW2442 Weather Reports


time (UTC)temp
C
wind
direction
speed
KPH
gust
KPH
rain 1hr
cm
rain 24hr
cm
rain mn
cm
humidity
%
barometer
mb
20260510023543 12 352 4.8 9.7 0.05 0.41 0.08 99 1016.0
20260510022543 12 324 3.2 9.7 0.03 0.38 0.05 99 1016.0
20260510021523 12 337 4.8 9.7 0.03 0.38 0.05 99 1016.0
20260510020523 12 54 3.2 9.7 0.03 0.38 0.05 99 1016.0
20260510015530 13 342 3.2 9.7 0.00 0.36 0.03 99 1016.0
20260510014537 13 340 3.2 14.5 0.00 0.36 0.03 99 1016.1
20260510013523 13 342 4.8 8.0 0.00 0.36 0.03 99 1016.1
20260510012544 13 348 3.2 11.3 0.00 0.36 0.03 99 1016.1
20260510011523 13 341 3.2 11.3 0.00 0.36 0.03 99 1016.2
20260510010524 13 336 3.2 4.8 0.00 0.36 0.03 99 1016.2
20260510005523 13 330 3.2 4.8 0.00 0.36 0.03 99 1016.2
20260510004523 13 334 3.2 6.4 0.00 0.36 0.03 99 1016.2
20260510003520 13 351 3.2 3.2 0.00 0.36 0.03 99 1016.2
20260510002543 13 349 4.8 9.7 0.00 0.36 0.03 99 1016.3
20260510001524 13 345 3.2 9.7 0.00 0.36 0.03 99 1016.2
20260510000543 13 352 3.2 11.3 0.00 0.36 0.03 99 1016.3
20260509235523 13 341 4.8 9.7 0.00 0.36 0.03 99 1016.4
20260509234523 13 355 6.4 12.9 0.00 0.36 0.03 99 1016.4
20260509233523 13 341 4.8 11.3 0.00 0.36 0.03 99 1016.5
20260509232524 13 356 3.2 8.0 0.00 0.36 0.03 99 1016.6
20260509231540 13 341 3.2 6.4 0.00 0.36 0.03 99 1016.7
20260509230524 13 344 3.2 4.8 0.00 0.36 0.03 99 1016.8
20260509225523 13 333 3.2 8.0 0.00 0.36 0.03 99 1016.8
20260509224523 13 339 4.8 12.9 0.00 0.36 0.03 99 1016.9
20260509223523 13 2 3.2 9.7 0.00 0.36 0.03 99 1016.9
20260509222524 13 336 4.8 11.3 0.03 0.36 0.03 99 1017.0
20260509221523 13 354 3.2 12.9 0.03 0.36 0.03 99 1017.1
20260509220603 13 11 3.2 8.0 0.03 0.36 0.03 98 1017.1
20260509215523 13 350 4.8 9.7 0.03 0.36 0.03 98 1017.2
20260509214522 13 341 3.2 11.3 0.03 0.36 0.03 98 1017.2
20260509213543 13 342 3.2 6.4 0.03 0.36 0.03 98 1017.3
20260509212523 13 339 3.2 8.0 0.00 0.33 0.00 98 1017.2
20260509211558 13 339 3.2 6.4 0.00 0.33 0.00 98 1017.2
20260509210523 13 328 3.2 9.7 0.00 0.33 0.00 98 1017.3
20260509205523 13 336 6.4 11.3 0.00 0.33 0.33 97 1017.2
20260509204523 13 337 4.8 11.3 0.00 0.33 0.33 97 1017.3
20260509203522 13 335 4.8 12.9 0.05 0.33 0.33 97 1017.3
20260509202542 13 328 3.2 8.0 0.15 0.33 0.33 97 1017.2
20260509201521 13 334 3.2 8.0 0.20 0.33 0.33 97 1017.3
20260509200521 13 352 4.8 9.7 0.25 0.33 0.33 97 1017.2
20260509195522 13 343 3.2 6.4 0.28 0.33 0.33 96 1017.2
20260509194522 14 337 6.4 16.1 0.30 0.33 0.33 96 1017.1
20260509193521 14 331 8.0 14.5 0.25 0.28 0.28 96 1017.1
20260509192522 14 328 4.8 9.7 0.15 0.18 0.18 96 1017.1
20260509191541 14 332 3.2 8.0 0.10 0.13 0.13 95 1017.2
20260509190521 14 347 3.2 9.7 0.05 0.08 0.08 95 1017.2
20260509185541 14 351 3.2 3.2 0.03 0.05 0.05 94 1017.1
20260509184520 15 338 3.2 6.4 0.00 0.03 0.03 94 1017.0
20260509183521 15 328 3.2 4.8 0.00 0.03 0.03 94 1016.9
20260509182521 15 332 3.2 6.4 0.00 0.03 0.03 94 1016.8
20260509181540 15 333 3.2 9.7 0.00 0.03 0.03 94 1016.8
20260509180521 15 333 3.2 3.2 0.00 0.03 0.03 93 1016.7
20260509175541 15 337 3.2 4.8 0.00 0.03 0.03 93 1016.6
20260509174520 15 330 3.2 4.8 0.00 0.03 0.03 93 1016.4
20260509173521 16 345 3.2 4.8 0.00 0.03 0.03 92 1016.4
20260509172520 16 343 3.2 3.2 0.00 0.03 0.03 91 1016.4
20260509171520 17 1 3.2 6.4 0.00 0.03 0.03 91 1016.3
20260509170541 17 355 3.2 4.8 0.00 0.03 0.03 90 1016.2
20260509165520 17 347 1.6 3.2 0.00 0.03 0.03 88 1016.2
20260509164520 17 346 1.6 1.6 0.00 0.03 0.03 87 1016.1
20260509163519 17 343 1.6 6.4 0.00 0.03 0.03 86 1016.1
20260509162519 17 348 1.6 1.6 0.00 0.03 0.03 86 1016.1
20260509161519 17 345 1.6 3.2 0.00 0.03 0.03 86 1016.1
20260509160539 17 8 1.6 1.6 0.00 0.03 0.03 86 1016.1
20260509155519 17 359 1.6 1.6 0.00 0.03 0.03 86 1016.1
20260509154519 17 29 1.6 3.2 0.00 0.03 0.03 85 1016.0
20260509153519 17 25 1.6 3.2 0.00 0.03 0.03 85 1016.1
20260509152539 17 22 1.6 3.2 0.00 0.03 0.03 85 1016.1
20260509151519 17 27 1.6 3.2 0.00 0.03 0.03 84 1016.1
20260509150519 17 12 1.6 3.2 0.00 0.03 0.03 83 1016.2
20260509145519 17 17 1.6 3.2 0.00 0.03 0.03 83 1016.2
20260509144519 17 30 1.6 3.2 0.00 0.03 0.03 83 1016.3
20260509143519 17 38 3.2 4.8 0.00 0.03 0.03 83 1016.3
20260509142518 18 40 3.2 6.4 0.00 0.03 0.03 81 1016.3
20260509141519 18 49 1.6 1.6 0.00 0.03 0.03 82 1016.4
20260509140541 18 31 1.6 1.6 0.00 0.03 0.03 82 1016.4
20260509135518 18 48 1.6 3.2 0.00 0.05 0.03 82 1016.4
20260509134519 18 38 1.6 3.2 0.00 0.08 0.03 83 1016.5
20260509133518 17 41 1.6 4.8 0.00 0.23 0.03 83 1016.5
20260509132518 17 57 1.6 1.6 0.00 0.56 0.03 84 1016.6
20260509131518 18 47 1.6 3.2 0.00 1.12 0.03 83 1016.7
20260509130518 18 46 1.6 4.8 0.00 1.12 0.03 82 1016.8
20260509125518 18 54 1.6 4.8 0.00 1.12 0.03 83 1017.0
20260509124537 18 58 1.6 3.2 0.00 1.12 0.03 82 1017.0
20260509123518 18 66 3.2 6.4 0.00 1.12 0.03 83 1017.1
20260509122518 18 54 3.2 6.4 0.00 1.12 0.03 82 1017.1
20260509121517 18 54 1.6 1.6 0.00 1.12 0.03 83 1017.1
20260509120518 18 49 1.6 4.8 0.00 1.12 0.03 81 1017.1
20260509115540 18 63 1.6 8.0 0.00 1.12 0.03 81 1017.1
20260509114517 19 56 1.6 6.4 0.00 1.12 0.03 81 1017.2
20260509113518 18 84 1.6 3.2 0.00 1.12 0.03 82 1017.3
20260509112517 18 64 3.2 6.4 0.00 1.12 0.03 83 1017.2
20260509111517 17 79 1.6 3.2 0.00 1.12 0.03 87 1017.3
20260509110517 17 86 3.2 6.4 0.00 1.12 0.03 85 1017.4
20260509105516 17 69 3.2 6.4 0.00 1.12 0.03 85 1017.4
20260509104519 17 82 3.2 4.8 0.00 1.12 0.03 85 1017.4
20260509103519 17 69 1.6 3.2 0.00 1.12 0.03 85 1017.4
20260509102519 17 54 1.6 3.2 0.00 1.12 0.03 86 1017.4
20260509101517 17 51 1.6 3.2 0.00 1.12 0.03 85 1017.4
20260509100519 17 50 3.2 4.8 0.00 1.12 0.03 85 1017.4
20260509095516 17 52 1.6 4.8 0.00 1.12 0.03 86 1017.5
20260509094537 17 40 1.6 4.8 0.00 1.12 0.03 86 1017.6
20260509093517 17 59 1.6 3.2 0.00 1.12 0.03 87 1017.6
20260509092517 17 55 1.6 3.2 0.00 1.12 0.03 87 1017.6
20260509091516 17 50 3.2 6.4 0.00 1.12 0.03 87 1017.6
20260509090524 17 40 3.2 6.4 0.00 1.12 0.03 88 1017.7
20260509085524 17 42 3.2 4.8 0.00 1.12 0.03 88 1017.5
20260509084524 17 48 1.6 3.2 0.00 1.12 0.03 92 1017.7
20260509083524 16 32 1.6 3.2 0.00 1.12 0.03 93 1017.8
20260509082525 16 46 1.6 4.8 0.00 1.12 0.03 94 1017.8
20260509081524 15 53 1.6 4.8 0.00 1.12 0.03 96 1017.8
20260509080522 15 57 1.6 3.2 0.00 1.12 0.03 98 1017.8
20260509075524 15 51 1.6 6.4 0.00 1.12 0.03 99 1017.9
20260509074603 15 47 1.6 4.8 0.00 1.12 0.03 100 1017.9
20260509073525 15 39 3.2 6.4 0.00 1.12 0.03 100 1017.8
20260509072528 15 15 1.6 3.2 0.00 1.12 0.03 100 1017.8
20260509071525 15 25 1.6 3.2 0.00 1.12 0.03 100 1017.8
20260509070525 14 353 1.6 3.2 0.00 1.12 0.03 100 1017.9
20260509065525 14 12 1.6 3.2 0.00 1.12 0.03 100 1017.8
20260509064528 14 358 3.2 3.2 0.00 1.12 0.03 100 1017.8
20260509063528 13 6 3.2 4.8 0.00 1.12 0.03 100 1017.7
20260509062526 13 4 3.2 3.2 0.00 1.12 0.03 100 1017.7
20260509061527 13 355 3.2 6.4 0.00 1.12 0.03 100 1017.7
20260509060525 13 359 1.6 4.8 0.00 1.12 0.03 100 1017.7
20260509055525 13 359 3.2 4.8 0.00 1.12 0.03 100 1017.7
20260509054524 13 359 3.2 3.2 0.00 1.12 0.03 100 1017.6
20260509053524 13 358 3.2 4.8 0.00 1.12 0.03 100 1017.6
20260509052525 13 350 3.2 8.0 0.00 1.12 0.03 100 1017.6
20260509051525 13 359 3.2 3.2 0.00 1.12 0.03 100 1017.6
20260509050524 13 1 3.2 4.8 0.00 1.12 0.03 100 1017.6
20260509045524 13 15 3.2 3.2 0.00 1.12 0.03 100 1017.6
20260509044525 13 358 3.2 3.2 0.00 1.12 0.03 100 1017.7
20260509043524 13 347 1.6 3.2 0.00 1.12 0.03 100 1017.7
20260509042524 13 358 1.6 3.2 0.00 1.12 0.03 100 1017.6
20260509041524 13 340 3.2 3.2 0.00 1.12 0.03 100 1017.6
20260509040525 13 333 3.2 3.2 0.03 1.12 0.03 100 1017.5
20260509035523 13 312 1.6 3.2 0.03 1.12 0.03 100 1017.5
20260509034525 13 319 1.6 3.2 0.03 1.12 0.03 100 1017.5
20260509033547 13 333 1.6 3.2 0.03 1.12 0.03 100 1017.4
20260509032525 13 320 1.6 3.2 0.03 1.12 0.03 100 1017.3
20260509031531 13 332 1.6 3.2 0.03 1.12 0.03 100 1017.2
20260509030525 13 306 0.0 1.6 0.00 1.09 0.00 100 1017.3
20260509025524 13 0.0 0.0 0.00 1.09 0.00 100 1017.2
20260509024546 13 341 0.0 1.6 0.00 1.09 0.00 100 1017.1